Temp
50 51 52 52 51 50 49 49 49 48 47 46 45 44 44 44 43 42 41 40 41 41 40 39 38 38 36 35 34 34 34 34 35 37 38 36 34 33 33 32 32 32 33 33 32 32 32 31 33 35 37 38 36 34 33 32 31 31 32 33 32 32 31 31 31 31 31 31 32
50 51 52 54 52 51 50 49 48 47 46 44 44 43 43 43 42 41 40 39 40 39 38 38 37 35 34 34 34 34 33 33 34 35 35 34 33 32 32 32 31 32 33 33 32 32 32 31 33 36 37 37 35 34 33 33 32 31 31 31 32 31 31 32 32 31 31 31 31
50 50 51 51 50 50 49 48 46 43 42 41 41 41 41 41 42 41 40 38 36 36 36 37 36 35 34 32 32 32 32 32 33 33 33 33 32 32 31 31 31 32 33 33 32 32 32 31 34 37 39 37 34 34 34 33 32 32 32 32 32 33 33 35 33 32 32 33 31
49 49 49 49 48 48 48 47 44 42 40 40 39 39 40 40 40 39 37 35 35 36 36 35 36 35 34 33 32 31 32 34 35 34 33 33 32 32 31 31 31 31 31 31 31 31 30 30 33 36 36 33 32 33 34 33 32 32 32 32 32 33 33 35 34 34 34 34 32
48 48 47 47 46 45 44 43 42 41 40 40 41 41 40 39 38 37 37 38 38 37 35 34 34 34 34 34 32 31 32 35 37 35 32 32 32 31 30 30 31 31 31 31 31 31 30 30 33 34 33 32 33 33 32 30 29 30 31 32 33 34 34 34 34 34 34 34 32
45 44 43 43 42 41 41 40 39 39 40 41 41 41 40 40 39 39 39 38 36 34 34 36 36 36 36 34 32 31 31 32 32 31 31 32 31 31 30 31 30 30 30 30 30 30 30 30 33 34 33 33 32 31 29 28 29 29 30 31 33 33 33 32 33 34 33 33 31
44 43 42 41 41 41 40 39 39 39 40 41 41 41 39 38 38 37 36 35 33 33 35 38 36 35 34 33 32 32 32 31 30 30 30 31 31 31 32 31 30 30 30 30 30 29 29 29 33 35 36 37 36 32 29 27 28 29 30 31 32 33 32 31 31 32 32 30 29
43 42 41 41 41 41 40 40 40 41 42 42 41 39 38 37 36 35 34 33 34 35 36 36 33 31 31 32 33 33 33 32 31 30 30 30 30 30 30 30 30 30 30 29 29 29 29 29 32 33 34 35 35 33 29 27 27 28 29 30 31 31 31 30 30 30 31 30 29
42 41 40 40 40 40 39 39 40 41 41 40 38 37 36 36 35 35 35 35 36 35 34 32 31 30 30 31 32 32 32 31 32 31 30 30 30 30 30 30 30 30 30 29 29 28 28 29 31 32 32 34 34 31 29 27 27 28 28 29 30 30 29 29 29 29 29 29 29
42 41 40 40 39 39 39 38 39 39 38 37 36 36 37 39 37 35 35 36 35 34 32 31 30 30 31 31 31 31 31 30 31 30 31 33 33 32 30 30 30 31 30 29 28 28 28 29 30 29 29 29 29 28 27 26 27 28 29 30 31 30 29 29 28 29 29 30 30
41 40 40 39 39 39 40 39 39 38 37 36 35 35 36 38 35 34 34 34 33 33 32 30 30 31 31 32 31 31 31 29 29 29 30 32 32 31 30 30 30 30 30 29 28 27 28 29 29 29 28 27 27 27 27 26 27 27 28 28 29 29 29 30 30 30 30 31 30
39 38 38 38 38 39 39 39 38 37 36 35 35 34 33 33 33 34 34 33 34 34 33 31 30 31 31 32 31 31 31 29 29 29 30 30 30 29 29 30 30 29 29 29 27 28 29 29 28 28 28 28 27 27 27 27 27 27 28 28 28 28 29 31 31 31 31 31 31
38 38 38 38 38 38 39 38 37 36 35 35 34 33 33 32 33 33 34 33 35 34 32 32 31 31 31 31 30 29 29 29 29 30 31 30 30 29 29 30 30 29 29 28 27 27 28 28 28 28 29 28 28 28 28 27 27 28 29 29 29 29 30 32 32 31 31 31 31
37 38 38 38 38 38 38 37 36 35 35 34 33 32 32 32 33 33 32 32 33 33 31 31 32 32 32 30 29 29 29 28 28 29 30 31 30 29 29 29 29 29 28 28 27 27 27 28 28 28 28 29 28 28 28 27 28 29 29 30 30 31 31 32 32 32 31 31 32
36 36 36 37 37 37 36 36 36 35 35 34 33 32 31 31 32 33 32 31 31 31 30 30 31 32 33 31 30 29 28 28 29 30 31 32 30 29 29 29 29 29 28 28 27 27 28 28 28 28 28 29 29 28 28 28 28 29 30 30 31 31 32 33 33 32 32 31 31
36 36 36 36 36 36 35 34 34 35 34 34 33 31 31 31 31 32 33 31 30 30 29 30 30 30 30 32 31 30 29 29 29 30 30 30 30 30 30 30 30 29 29 28 28 28 28 28 28 28 28 29 29 29 29 29 29 29 30 30 31 32 32 33 34 33 33 32 33
35 35 35 35 36 36 35 34 33 33 33 33 33 32 31 30 31 33 34 33 31 30 31 31 29 29 29 32 32 32 30 29 29 30 30 31 31 30 30 30 30 30 29 28 29 29 29 28 27 27 28 28 29 29 30 30 30 30 31 31 31 32 33 35 34 34 34 34 35
34 34 34 35 35 35 35 34 33 33 33 33 32 31 31 30 31 32 33 33 31 31 32 32 29 28 29 30 30 31 32 30 30 30 30 30 30 30 30 30 30 29 28 28 29 29 29 29 28 28 27 28 28 29 30 30 30 31 31 32 32 33 33 34 34 35 36 36 37
34 34 34 35 35 35 35 36 35 34 33 32 31 31 31 30 30 30 31 32 32 31 31 31 30 29 29 30 29 31 33 32 31 30 30 29 29 29 29 29 29 28 28 28 28 28 29 29 29 28 28 28 29 29 30 30 31 32 32 32 33 34 34 34 34 36 37 38 38
34 34 34 34 34 34 35 36 35 33 32 31 31 31 31 30 30 30 31 31 32 30 29 30 30 30 30 29 29 30 32 32 30 29 29 29 28 28 29 29 29 28 28 28 28 28 28 28 29 29 29 30 30 31 31 32 32 32 33 34 34 34 35 35 36 37 37 37 37
34 34 34 33 33 33 33 33 32 31 30 30 30 31 30 30 30 30 31 31 31 30 28 29 30 30 30 30 30 30 30 32 29 28 28 29 29 30 30 30 29 28 28 28 28 28 28 29 29 30 30 31 32 32 33 33 33 33 34 35 36 36 36 37 38 38 38 37 37
33 33 32 32 32 32 31 31 30 30 30 30 30 30 30 30 30 29 30 31 30 29 29 29 29 30 30 30 30 29 29 30 28 28 28 28 29 30 30 30 29 28 28 28 28 29 29 30 31 31 32 32 32 33 34 36 38 37 36 36 36 36 37 39 40 39 38 37 37
32 31 31 30 31 33 34 31 30 30 30 30 30 30 30 30 29 29 28 29 30 30 29 29 29 29 29 29 28 28 28 28 28 28 29 28 28 29 29 28 28 28 29 29 29 29 30 31 32 33 33 33 35 36 37 38 39 39 38 37 36 38 40 42 40 39 37 36 36
31 31 30 30 30 31 31 30 30 30 31 31 30 30 30 29 29 28 28 28 29 29 29 28 29 29 28 28 27 27 28 29 29 30 30 29 29 28 28 28 28 29 29 30 32 34 36 37 37 37 37 38 39 40 41 42 43 42 40 39 39 40 41 40 38 36 36 36 36
30 31 32 30 30 30 30 30 31 31 31 30 29 29 29 29 29 29 29 29 29 29 29 28 29 28 28 28 27 27 28 29 30 30 30 30 30 29 28 28 29 29 31 34 41 46 49 49 46 44 43 43 42 43 43 44 44 42 41 41 41 41 40 39 37 36 35 35 35
29 31 31 30 30 30 30 31 31 30 30 29 29 29 29 29 29 29 29 30 30 29 28 28 28 29 31 30 28 28 28 28 29 29 30 30 29 29 29 29 30 31 33 39 46 49 51 52 52 51 49 46 46 45 45 43 43 42 41 40 40 41 40 38 36 34 34 33 33
30 30 30 29 30 30 30 29 29 29 29 29 30 30 29 28 28 28 29 30 29 28 28 28 29 32 34 31 30 29 30 29 29 29 29 29 29 29 30 30 31 32 36 43 48 50 52 52 53 53 51 49 47 45 44 43 42 41 40 39 39 39 38 37 36 36 36 36 35
30 30 29 30 30 30 29 29 30 30 30 30 30 29 28 27 28 28 29 29 28 28 28 28 31 32 31 30 29 30 30 30 29 29 28 28 28 29 29 30 31 34 39 46 49 51 52 52 53 53 53 51 47 45 43 42 41 39 38 37 36 36 36 37 38 38 38 37 36
30 30 30 31 31 30 29 30 31 31 30 29 28 28 28 28 28 29 29 29 29 30 30 29 31 31 29 29 30 30 29 29 29 29 28 28 28 29 29 30 31 35 41 47 49 50 51 52 53 53 54 53 48 45 42 41 39 38 36 35 34 35 36 36 37 38 38 37 36
29 30 30 31 31 30 30 30 30 29 28 28 28 28 28 29 29 30 30 30 31 31 31 31 30 29 29 30 30 29 29 30 29 29 29 28 29 30 31 34 33 36 41 47 49 50 51 52 53 53 53 53 50 46 42 39 37 35 35 34 34 36 38 39 39 38 38 37 36
29 29 30 31 31 31 30 29 28 28 27 27 28 28 29 30 31 31 30 30 31 32 32 30 29 29 29 29 28 29 29 30 29 29 29 29 32 33 33 32 31 35 40 46 49 50 51 52 53 53 53 53 50 46 41 37 35 34 33 34 36 37 39 39 38 38 37 36 35
28 29 30 31 31 30 29 28 28 27 27 28 28 29 30 31 30 29 28 29 30 30 30 28 29 29 29 29 29 29 29 30 30 31 31 31 31 31 31 32 31 34 40 46 49 50 51 52 52 53 53 53 50 45 39 36 34 34 35 36 37 38 38 38 37 36 35 35 34
28 29 30 31 31 30 29 28 27 27 27 28 28 29 30 29 28 27 27 28 29 29 29 29 30 31 31 31 31 31 31 31 32 33 35 34 32 31 31 31 31 36 42 47 49 51 51 52 52 52 52 53 49 42 36 35 35 36 36 37 37 37 36 36 35 35 34 34 34
29 29 30 31 31 30 29 28 27 27 27 28 28 29 29 28 29 29 30 31 30 29 28 29 30 31 31 31 31 31 32 34 33 32 31 30 29 29 30 30 32 38 44 48 49 50 51 51 51 52 52 53 47 41 36 36 37 37 37 37 36 35 35 34 34 34 34 34 34
29 30 30 30 30 29 29 28 27 27 28 29 30 29 28 28 29 30 31 34 32 30 28 28 28 28 28 28 28 29 31 33 32 31 30 30 29 30 31 31 32 38 45 48 49 50 50 51 51 51 51 51 45 41 38 39 38 37 36 34 34 33 33 33 33 34 34 34 34
29 30 31 30 29 29 28 28 27 28 29 30 30 30 29 28 28 28 30 34 33 30 28 28 27 27 27 28 28 30 32 31 31 31 31 31 30 30 30 30 31 36 43 48 49 49 50 50 50 51 50 48 44 41 39 40 37 35 33 32 32 32 33 33 34 34 34 34 34
29 30 31 31 30 29 28 27 28 29 30 31 30 30 29 29 28 28 29 32 30 29 28 28 28 28 29 30 30 31 32 31 30 30 31 33 32 30 29 29 29 34 40 46 48 49 49 49 50 50 49 46 41 39 38 38 35 34 32 31 31 32 32 33 34 34 34 35 36
29 30 31 31 31 30 28 27 28 30 31 31 29 28 28 27 27 28 29 33 30 29 29 28 29 29 30 30 30 31 31 30 31 31 30 31 30 30 29 30 29 32 38 44 47 48 48 49 49 49 48 45 41 38 37 36 35 34 33 32 32 32 33 34 34 35 35 35 40
29 30 31 31 31 30 29 28 29 30 31 30 29 27 27 26 27 28 31 33 30 29 29 29 30 30 30 32 31 31 31 30 30 31 30 29 30 33 34 32 30 32 36 43 46 47 47 48 49 49 49 46 40 38 37 37 36 34 33 31 32 33 33 34 34 35 36 36 43
29 30 30 30 31 30 29 29 29 29 29 29 29 28 27 28 29 31 32 31 28 28 28 29 29 30 31 35 33 31 30 29 29 29 30 31 32 37 39 34 30 30 34 41 44 46 47 48 48 49 48 46 40 39 39 38 36 33 32 32 33 34 34 35 35 35 35 36 41
29 29 30 30 30 30 30 30 30 29 28 28 28 29 30 31 31 30 29 27 27 27 28 28 29 29 31 34 31 29 28 29 29 29 30 32 33 35 36 32 29 28 31 36 42 45 47 47 48 49 48 47 43 42 41 39 35 33 32 33 34 34 35 35 35 35 36 37 38
MSLP
1021.33 1021.29 1021.33 1021.37 1021.45 1021.61 1021.81 1022.05 1022.21 1022.33 1022.49 1022.69 1022.93 1023.09 1023.21 1023.41 1023.65 1023.81 1023.93 1023.97 1024.09 1024.21 1024.29 1024.33 1024.37 1024.45 1024.53 1024.53 1024.61 1024.65 1024.69 1024.69 1024.65 1024.57 1024.57 1024.69 1024.73 1024.77 1024.81 1024.81 1024.81 1024.85 1024.89 1024.89 1024.89 1024.85 1024.81 1024.81 1024.81 1024.77 1024.69 1024.69 1024.69 1024.69 1024.73 1024.73 1024.77 1024.73 1024.69 1024.73 1024.73 1024.77 1024.81 1024.81 1024.77 1024.73 1024.69 1024.69 1024.65
1021.41 1021.29 1021.25 1021.37 1021.49 1021.69 1021.89 1022.13 1022.33 1022.53 1022.65 1022.77 1022.97 1023.13 1023.25 1023.45 1023.69 1023.89 1024.01 1024.05 1024.09 1024.17 1024.25 1024.37 1024.41 1024.53 1024.61 1024.65 1024.69 1024.69 1024.69 1024.69 1024.69 1024.69 1024.69 1024.73 1024.77 1024.81 1024.81 1024.89 1024.89 1024.89 1024.89 1024.85 1024.89 1024.85 1024.81 1024.81 1024.81 1024.77 1024.73 1024.69 1024.69 1024.73 1024.69 1024.69 1024.73 1024.73 1024.73 1024.73 1024.69 1024.69 1024.73 1024.73 1024.69 1024.69 1024.65 1024.61 1024.57
1021.37 1021.29 1021.33 1021.45 1021.61 1021.81 1022.05 1022.29 1022.53 1022.73 1022.89 1022.97 1023.05 1023.17 1023.33 1023.53 1023.69 1023.89 1024.01 1024.13 1024.17 1024.21 1024.29 1024.41 1024.53 1024.57 1024.69 1024.73 1024.73 1024.73 1024.73 1024.73 1024.73 1024.77 1024.81 1024.81 1024.81 1024.81 1024.85 1024.93 1024.93 1024.89 1024.89 1024.85 1024.89 1024.85 1024.85 1024.85 1024.81 1024.73 1024.69 1024.73 1024.77 1024.77 1024.77 1024.73 1024.69 1024.69 1024.73 1024.77 1024.69 1024.69 1024.69 1024.65 1024.61 1024.61 1024.57 1024.53 1024.53
1021.33 1021.37 1021.49 1021.65 1021.77 1021.97 1022.17 1022.41 1022.69 1022.89 1023.01 1023.13 1023.25 1023.33 1023.45 1023.61 1023.73 1023.89 1024.05 1024.13 1024.25 1024.29 1024.41 1024.53 1024.61 1024.69 1024.69 1024.73 1024.77 1024.77 1024.77 1024.73 1024.73 1024.81 1024.81 1024.85 1024.89 1024.89 1024.89 1024.97 1024.97 1024.93 1024.93 1024.93 1024.89 1024.85 1024.85 1024.81 1024.77 1024.73 1024.69 1024.73 1024.81 1024.81 1024.77 1024.73 1024.73 1024.73 1024.73 1024.69 1024.69 1024.69 1024.65 1024.57 1024.53 1024.53 1024.53 1024.49 1024.45
1021.45 1021.53 1021.61 1021.77 1021.97 1022.13 1022.33 1022.53 1022.73 1022.97 1023.13 1023.17 1023.29 1023.45 1023.57 1023.69 1023.81 1023.97 1024.09 1024.17 1024.29 1024.41 1024.53 1024.61 1024.65 1024.69 1024.73 1024.73 1024.77 1024.81 1024.81 1024.81 1024.77 1024.81 1024.89 1024.93 1024.97 1024.93 1024.93 1024.97 1024.97 1024.93 1024.93 1024.93 1024.89 1024.85 1024.85 1024.81 1024.77 1024.73 1024.73 1024.73 1024.77 1024.77 1024.77 1024.77 1024.81 1024.81 1024.73 1024.69 1024.65 1024.61 1024.61 1024.57 1024.53 1024.45 1024.41 1024.41 1024.41
1021.65 1021.77 1021.85 1021.97 1022.13 1022.29 1022.49 1022.69 1022.81 1022.97 1023.13 1023.21 1023.37 1023.57 1023.73 1023.81 1023.89 1024.01 1024.17 1024.37 1024.45 1024.53 1024.57 1024.61 1024.65 1024.69 1024.69 1024.73 1024.81 1024.85 1024.85 1024.89 1024.89 1024.93 1024.97 1024.97 1024.97 1024.97 1024.97 1024.97 1024.97 1024.97 1024.97 1024.93 1024.89 1024.85 1024.85 1024.81 1024.73 1024.69 1024.69 1024.69 1024.69 1024.73 1024.81 1024.81 1024.81 1024.81 1024.81 1024.73 1024.65 1024.57 1024.57 1024.53 1024.45 1024.41 1024.41 1024.41 1024.37
1021.81 1021.93 1022.05 1022.17 1022.29 1022.53 1022.69 1022.85 1022.97 1023.09 1023.17 1023.25 1023.45 1023.69 1023.85 1023.97 1024.05 1024.21 1024.37 1024.45 1024.53 1024.61 1024.65 1024.61 1024.69 1024.73 1024.77 1024.81 1024.81 1024.85 1024.89 1024.93 1024.97 1024.97 1024.97 1025.01 1025.01 1024.97 1024.97 1024.97 1024.97 1024.97 1024.93 1024.89 1024.85 1024.81 1024.81 1024.81 1024.73 1024.69 1024.69 1024.69 1024.69 1024.73 1024.81 1024.85 1024.85 1024.85 1024.81 1024.77 1024.61 1024.53 1024.49 1024.49 1024.37 1024.29 1024.33 1024.41 1024.37
1021.97 1022.09 1022.25 1022.37 1022.49 1022.65 1022.81 1022.93 1023.05 1023.13 1023.25 1023.41 1023.57 1023.77 1023.97 1024.05 1024.17 1024.29 1024.41 1024.53 1024.57 1024.65 1024.65 1024.69 1024.77 1024.81 1024.81 1024.85 1024.85 1024.85 1024.93 1024.97 1024.97 1024.97 1024.97 1025.05 1025.05 1025.05 1025.05 1025.01 1024.97 1024.93 1024.93 1024.89 1024.85 1024.81 1024.81 1024.81 1024.73 1024.73 1024.77 1024.73 1024.69 1024.73 1024.77 1024.81 1024.85 1024.85 1024.81 1024.73 1024.53 1024.45 1024.41 1024.37 1024.29 1024.25 1024.25 1024.29 1024.25
1022.17 1022.29 1022.41 1022.53 1022.65 1022.81 1022.93 1022.97 1023.09 1023.25 1023.41 1023.61 1023.77 1023.89 1023.97 1024.09 1024.25 1024.37 1024.45 1024.53 1024.53 1024.61 1024.69 1024.77 1024.81 1024.85 1024.85 1024.89 1024.89 1024.93 1024.97 1024.97 1024.97 1024.97 1025.05 1025.09 1025.09 1025.05 1025.01 1024.97 1024.93 1024.89 1024.85 1024.85 1024.81 1024.81 1024.81 1024.81 1024.73 1024.77 1024.81 1024.77 1024.73 1024.73 1024.77 1024.81 1024.81 1024.81 1024.77 1024.65 1024.53 1024.41 1024.33 1024.25 1024.25 1024.25 1024.25 1024.21 1024.21
1022.37 1022.49 1022.61 1022.73 1022.85 1022.97 1023.05 1023.17 1023.25 1023.37 1023.53 1023.77 1023.89 1023.97 1024.05 1024.13 1024.25 1024.37 1024.45 1024.53 1024.57 1024.65 1024.73 1024.81 1024.85 1024.89 1024.89 1024.93 1024.97 1024.97 1024.97 1024.97 1025.01 1025.05 1025.09 1025.05 1025.01 1024.97 1024.97 1024.97 1024.89 1024.85 1024.81 1024.81 1024.81 1024.81 1024.81 1024.81 1024.81 1024.81 1024.81 1024.77 1024.73 1024.73 1024.73 1024.73 1024.77 1024.69 1024.61 1024.53 1024.45 1024.37 1024.29 1024.17 1024.13 1024.13 1024.09 1024.09 1024.09
1022.53 1022.65 1022.77 1022.93 1023.05 1023.09 1023.13 1023.33 1023.41 1023.53 1023.69 1023.89 1024.01 1024.09 1024.13 1024.25 1024.29 1024.41 1024.45 1024.53 1024.61 1024.69 1024.81 1024.81 1024.85 1024.85 1024.89 1024.93 1024.93 1024.97 1024.97 1025.01 1025.09 1025.09 1025.09 1025.01 1024.97 1024.97 1024.97 1024.97 1024.89 1024.85 1024.81 1024.81 1024.81 1024.81 1024.81 1024.85 1024.85 1024.81 1024.77 1024.73 1024.69 1024.69 1024.69 1024.65 1024.65 1024.65 1024.53 1024.41 1024.41 1024.37 1024.25 1024.09 1023.97 1023.97 1023.97 1023.97 1023.93
1022.77 1022.89 1022.97 1023.09 1023.17 1023.25 1023.29 1023.45 1023.61 1023.77 1023.89 1023.97 1024.09 1024.17 1024.25 1024.29 1024.41 1024.45 1024.53 1024.57 1024.69 1024.77 1024.81 1024.81 1024.85 1024.85 1024.89 1024.89 1024.93 1024.93 1024.97 1025.05 1025.09 1025.09 1025.05 1025.01 1024.97 1024.93 1024.89 1024.85 1024.85 1024.81 1024.81 1024.81 1024.81 1024.85 1024.85 1024.85 1024.85 1024.81 1024.77 1024.69 1024.65 1024.61 1024.57 1024.53 1024.53 1024.53 1024.45 1024.37 1024.29 1024.25 1024.13 1023.97 1023.85 1023.81 1023.81 1023.81 1023.77
1022.93 1023.05 1023.13 1023.25 1023.25 1023.33 1023.45 1023.65 1023.81 1023.93 1024.01 1024.09 1024.21 1024.25 1024.29 1024.41 1024.45 1024.49 1024.53 1024.65 1024.69 1024.77 1024.81 1024.81 1024.81 1024.81 1024.85 1024.89 1024.97 1025.01 1025.01 1025.05 1025.05 1025.01 1024.97 1024.93 1024.89 1024.85 1024.85 1024.81 1024.81 1024.81 1024.81 1024.81 1024.81 1024.81 1024.81 1024.81 1024.81 1024.81 1024.73 1024.65 1024.57 1024.53 1024.45 1024.49 1024.45 1024.41 1024.37 1024.25 1024.21 1024.13 1024.01 1023.85 1023.69 1023.65 1023.65 1023.65 1023.61
1023.01 1023.17 1023.25 1023.33 1023.37 1023.45 1023.61 1023.81 1023.93 1024.01 1024.09 1024.21 1024.25 1024.33 1024.37 1024.45 1024.49 1024.53 1024.61 1024.69 1024.69 1024.77 1024.81 1024.81 1024.81 1024.81 1024.81 1024.89 1024.97 1024.97 1024.97 1024.97 1024.97 1024.97 1024.93 1024.85 1024.85 1024.89 1024.89 1024.81 1024.81 1024.81 1024.81 1024.81 1024.81 1024.81 1024.77 1024.77 1024.73 1024.73 1024.69 1024.57 1024.49 1024.37 1024.33 1024.33 1024.29 1024.25 1024.17 1024.13 1024.09 1024.01 1023.85 1023.69 1023.57 1023.53 1023.53 1023.49 1023.45
1023.17 1023.29 1023.41 1023.41 1023.53 1023.61 1023.77 1023.93 1024.01 1024.09 1024.17 1024.25 1024.33 1024.41 1024.45 1024.53 1024.53 1024.57 1024.65 1024.69 1024.73 1024.81 1024.85 1024.85 1024.89 1024.85 1024.81 1024.89 1024.93 1024.93 1024.93 1024.89 1024.89 1024.89 1024.89 1024.89 1024.85 1024.85 1024.89 1024.85 1024.81 1024.81 1024.77 1024.77 1024.73 1024.69 1024.65 1024.65 1024.61 1024.57 1024.57 1024.53 1024.41 1024.29 1024.21 1024.17 1024.13 1024.09 1024.01 1023.97 1023.93 1023.81 1023.69 1023.53 1023.45 1023.41 1023.37 1023.41 1023.41
1023.33 1023.41 1023.49 1023.53 1023.65 1023.73 1023.89 1024.01 1024.09 1024.17 1024.25 1024.33 1024.41 1024.45 1024.53 1024.57 1024.65 1024.65 1024.69 1024.69 1024.77 1024.81 1024.85 1024.89 1024.89 1024.89 1024.89 1024.81 1024.81 1024.85 1024.85 1024.81 1024.85 1024.85 1024.89 1024.93 1024.93 1024.89 1024.85 1024.85 1024.81 1024.77 1024.73 1024.69 1024.65 1024.57 1024.53 1024.49 1024.45 1024.41 1024.41 1024.37 1024.25 1024.17 1024.09 1024.01 1023.97 1023.89 1023.85 1023.77 1023.69 1023.65 1023.53 1023.41 1023.33 1023.25 1023.25 1023.29 1023.33
1023.49 1023.53 1023.57 1023.65 1023.73 1023.85 1023.97 1024.09 1024.21 1024.29 1024.37 1024.41 1024.45 1024.53 1024.57 1024.61 1024.69 1024.69 1024.69 1024.69 1024.77 1024.81 1024.85 1024.85 1024.89 1024.89 1024.85 1024.81 1024.77 1024.77 1024.81 1024.81 1024.85 1024.89 1024.89 1024.93 1024.93 1024.89 1024.81 1024.81 1024.73 1024.69 1024.65 1024.65 1024.57 1024.49 1024.37 1024.29 1024.29 1024.29 1024.25 1024.21 1024.09 1024.01 1023.93 1023.85 1023.81 1023.73 1023.69 1023.57 1023.53 1023.45 1023.33 1023.21 1023.13 1023.13 1023.17 1023.21 1023.17
1023.61 1023.69 1023.69 1023.73 1023.85 1023.97 1024.09 1024.21 1024.29 1024.41 1024.41 1024.49 1024.53 1024.57 1024.61 1024.65 1024.69 1024.69 1024.69 1024.69 1024.77 1024.81 1024.85 1024.85 1024.85 1024.85 1024.81 1024.77 1024.81 1024.77 1024.73 1024.81 1024.81 1024.85 1024.85 1024.85 1024.85 1024.81 1024.77 1024.69 1024.65 1024.57 1024.53 1024.53 1024.49 1024.41 1024.25 1024.17 1024.13 1024.13 1024.09 1024.01 1023.97 1023.85 1023.81 1023.69 1023.69 1023.57 1023.49 1023.41 1023.29 1023.21 1023.13 1022.97 1022.97 1023.01 1023.01 1022.97 1022.93
1023.73 1023.81 1023.81 1023.89 1023.97 1024.09 1024.17 1024.21 1024.29 1024.41 1024.41 1024.49 1024.53 1024.57 1024.61 1024.65 1024.69 1024.69 1024.73 1024.77 1024.77 1024.81 1024.81 1024.81 1024.81 1024.81 1024.81 1024.77 1024.81 1024.77 1024.73 1024.77 1024.81 1024.81 1024.81 1024.81 1024.77 1024.73 1024.69 1024.61 1024.53 1024.49 1024.45 1024.41 1024.33 1024.25 1024.17 1024.09 1024.01 1023.97 1023.97 1023.85 1023.81 1023.69 1023.61 1023.53 1023.49 1023.41 1023.33 1023.25 1023.13 1022.97 1022.89 1022.81 1022.81 1022.81 1022.81 1022.73 1022.69
1023.85 1023.93 1023.97 1023.97 1024.09 1024.17 1024.21 1024.25 1024.29 1024.41 1024.45 1024.53 1024.53 1024.57 1024.61 1024.65 1024.69 1024.69 1024.73 1024.77 1024.73 1024.77 1024.81 1024.81 1024.81 1024.81 1024.81 1024.81 1024.77 1024.73 1024.73 1024.73 1024.81 1024.81 1024.77 1024.73 1024.69 1024.69 1024.57 1024.53 1024.45 1024.41 1024.37 1024.29 1024.25 1024.13 1024.09 1023.97 1023.89 1023.81 1023.77 1023.69 1023.65 1023.53 1023.45 1023.37 1023.33 1023.25 1023.13 1023.05 1022.97 1022.81 1022.69 1022.65 1022.61 1022.61 1022.57 1022.53 1022.49
1023.93 1023.97 1023.97 1024.05 1024.09 1024.21 1024.25 1024.29 1024.37 1024.41 1024.49 1024.53 1024.57 1024.61 1024.61 1024.65 1024.69 1024.73 1024.73 1024.73 1024.73 1024.77 1024.81 1024.81 1024.81 1024.81 1024.81 1024.81 1024.81 1024.77 1024.69 1024.69 1024.77 1024.77 1024.73 1024.69 1024.61 1024.53 1024.49 1024.41 1024.41 1024.33 1024.25 1024.21 1024.09 1024.05 1023.97 1023.85 1023.77 1023.69 1023.57 1023.53 1023.45 1023.37 1023.29 1023.21 1023.13 1023.05 1022.97 1022.85 1022.73 1022.61 1022.53 1022.49 1022.49 1022.45 1022.41 1022.37 1022.29
1023.97 1023.97 1024.05 1024.13 1024.21 1024.25 1024.29 1024.33 1024.37 1024.41 1024.45 1024.49 1024.53 1024.57 1024.61 1024.65 1024.69 1024.69 1024.69 1024.73 1024.73 1024.77 1024.77 1024.81 1024.81 1024.81 1024.81 1024.81 1024.81 1024.77 1024.69 1024.69 1024.73 1024.73 1024.69 1024.61 1024.53 1024.41 1024.37 1024.33 1024.33 1024.29 1024.21 1024.09 1024.01 1023.97 1023.85 1023.69 1023.57 1023.49 1023.41 1023.33 1023.25 1023.17 1023.09 1023.01 1022.89 1022.81 1022.73 1022.69 1022.53 1022.45 1022.41 1022.33 1022.29 1022.25 1022.21 1022.13 1022.09
1023.97 1024.05 1024.13 1024.25 1024.25 1024.25 1024.25 1024.33 1024.37 1024.41 1024.45 1024.49 1024.53 1024.57 1024.61 1024.65 1024.69 1024.69 1024.73 1024.73 1024.73 1024.73 1024.73 1024.77 1024.77 1024.77 1024.77 1024.77 1024.81 1024.77 1024.73 1024.73 1024.69 1024.65 1024.53 1024.53 1024.49 1024.41 1024.33 1024.29 1024.25 1024.25 1024.13 1024.01 1023.97 1023.85 1023.77 1023.57 1023.41 1023.25 1023.13 1023.09 1023.01 1022.89 1022.81 1022.77 1022.69 1022.65 1022.57 1022.53 1022.41 1022.33 1022.21 1022.13 1022.09 1022.09 1022.01 1021.97 1021.97
1024.01 1024.09 1024.17 1024.25 1024.25 1024.29 1024.33 1024.37 1024.41 1024.41 1024.45 1024.49 1024.53 1024.57 1024.61 1024.65 1024.69 1024.69 1024.69 1024.73 1024.73 1024.73 1024.77 1024.77 1024.77 1024.77 1024.77 1024.77 1024.81 1024.81 1024.81 1024.77 1024.69 1024.61 1024.53 1024.41 1024.41 1024.33 1024.29 1024.25 1024.17 1024.09 1024.05 1023.93 1023.81 1023.69 1023.53 1023.29 1023.09 1022.93 1022.81 1022.73 1022.65 1022.57 1022.53 1022.45 1022.41 1022.37 1022.33 1022.25 1022.25 1022.13 1022.09 1022.01 1021.97 1021.97 1021.97 1021.89 1021.81
1024.01 1024.05 1024.09 1024.25 1024.29 1024.33 1024.33 1024.37 1024.41 1024.41 1024.45 1024.53 1024.53 1024.57 1024.61 1024.65 1024.69 1024.69 1024.73 1024.73 1024.73 1024.73 1024.77 1024.77 1024.77 1024.77 1024.77 1024.77 1024.77 1024.77 1024.77 1024.73 1024.69 1024.65 1024.53 1024.41 1024.33 1024.25 1024.25 1024.17 1024.09 1023.97 1023.93 1023.77 1023.49 1023.21 1022.97 1022.77 1022.61 1022.53 1022.45 1022.37 1022.33 1022.29 1022.25 1022.17 1022.09 1022.09 1022.09 1022.09 1022.05 1022.01 1022.01 1021.97 1021.97 1021.97 1021.89 1021.81 1021.81
1024.05 1024.09 1024.13 1024.25 1024.29 1024.33 1024.37 1024.41 1024.41 1024.45 1024.49 1024.53 1024.53 1024.61 1024.65 1024.69 1024.69 1024.69 1024.73 1024.77 1024.77 1024.73 1024.73 1024.77 1024.77 1024.77 1024.73 1024.73 1024.73 1024.73 1024.69 1024.69 1024.65 1024.61 1024.53 1024.45 1024.37 1024.25 1024.13 1024.09 1023.97 1023.89 1023.81 1023.57 1023.25 1022.97 1022.77 1022.53 1022.33 1022.25 1022.13 1022.09 1022.05 1022.01 1021.97 1021.97 1021.97 1021.93 1021.93 1021.97 1021.97 1021.97 1022.01 1022.01 1021.97 1021.93 1021.93 1021.85 1021.81
1023.97 1024.09 1024.17 1024.25 1024.25 1024.33 1024.41 1024.41 1024.45 1024.45 1024.49 1024.53 1024.57 1024.61 1024.65 1024.69 1024.73 1024.73 1024.77 1024.77 1024.77 1024.77 1024.77 1024.81 1024.77 1024.69 1024.69 1024.73 1024.73 1024.69 1024.65 1024.57 1024.53 1024.53 1024.53 1024.41 1024.37 1024.25 1024.09 1023.97 1023.85 1023.77 1023.61 1023.41 1023.09 1022.81 1022.61 1022.41 1022.17 1022.01 1021.89 1021.85 1021.85 1021.89 1021.89 1021.89 1021.85 1021.85 1021.89 1021.97 1021.97 1021.97 1022.01 1022.01 1021.97 1021.93 1021.85 1021.81 1021.69
1023.97 1024.09 1024.17 1024.25 1024.33 1024.41 1024.41 1024.45 1024.49 1024.49 1024.49 1024.53 1024.61 1024.69 1024.69 1024.73 1024.77 1024.77 1024.81 1024.81 1024.81 1024.81 1024.81 1024.81 1024.77 1024.69 1024.69 1024.73 1024.69 1024.69 1024.61 1024.53 1024.45 1024.41 1024.41 1024.37 1024.33 1024.25 1024.09 1023.97 1023.81 1023.65 1023.45 1023.17 1022.93 1022.69 1022.49 1022.29 1022.09 1021.81 1021.69 1021.65 1021.69 1021.73 1021.81 1021.81 1021.85 1021.89 1021.93 1021.97 1021.97 1021.97 1021.97 1021.97 1021.89 1021.81 1021.77 1021.69 1021.57
1024.01 1024.09 1024.17 1024.25 1024.37 1024.41 1024.45 1024.45 1024.49 1024.49 1024.53 1024.57 1024.65 1024.69 1024.69 1024.77 1024.81 1024.81 1024.81 1024.81 1024.81 1024.81 1024.81 1024.81 1024.73 1024.69 1024.69 1024.69 1024.69 1024.57 1024.53 1024.49 1024.41 1024.37 1024.37 1024.29 1024.25 1024.13 1023.97 1023.81 1023.69 1023.53 1023.29 1023.05 1022.81 1022.57 1022.41 1022.17 1021.93 1021.69 1021.53 1021.49 1021.57 1021.69 1021.73 1021.81 1021.81 1021.89 1021.93 1021.93 1021.89 1021.89 1021.85 1021.81 1021.73 1021.65 1021.61 1021.53 1021.45
1024.01 1024.09 1024.17 1024.29 1024.41 1024.45 1024.45 1024.49 1024.53 1024.53 1024.57 1024.65 1024.69 1024.73 1024.77 1024.81 1024.81 1024.81 1024.81 1024.81 1024.81 1024.81 1024.81 1024.77 1024.77 1024.77 1024.73 1024.69 1024.65 1024.53 1024.49 1024.41 1024.29 1024.29 1024.29 1024.25 1024.13 1023.97 1023.81 1023.69 1023.57 1023.45 1023.25 1022.97 1022.73 1022.53 1022.25 1022.01 1021.81 1021.65 1021.49 1021.41 1021.41 1021.53 1021.69 1021.77 1021.81 1021.85 1021.85 1021.81 1021.77 1021.69 1021.65 1021.57 1021.53 1021.49 1021.41 1021.41 1021.33
1024.05 1024.09 1024.21 1024.29 1024.41 1024.45 1024.49 1024.49 1024.53 1024.57 1024.65 1024.69 1024.73 1024.77 1024.81 1024.81 1024.81 1024.85 1024.85 1024.81 1024.81 1024.73 1024.69 1024.73 1024.81 1024.77 1024.69 1024.65 1024.61 1024.57 1024.49 1024.37 1024.25 1024.25 1024.21 1024.17 1024.01 1023.89 1023.73 1023.61 1023.53 1023.37 1023.13 1022.89 1022.61 1022.41 1022.13 1021.89 1021.69 1021.53 1021.45 1021.37 1021.33 1021.49 1021.65 1021.69 1021.73 1021.77 1021.77 1021.73 1021.65 1021.53 1021.49 1021.45 1021.41 1021.37 1021.33 1021.29 1021.25
1024.09 1024.13 1024.25 1024.33 1024.41 1024.45 1024.49 1024.53 1024.57 1024.61 1024.69 1024.73 1024.77 1024.81 1024.81 1024.81 1024.81 1024.81 1024.81 1024.81 1024.73 1024.69 1024.69 1024.73 1024.77 1024.73 1024.65 1024.61 1024.53 1024.49 1024.41 1024.33 1024.25 1024.13 1024.09 1024.01 1023.97 1023.85 1023.73 1023.57 1023.45 1023.29 1023.05 1022.73 1022.49 1022.25 1022.01 1021.81 1021.65 1021.53 1021.41 1021.25 1021.29 1021.45 1021.61 1021.65 1021.65 1021.65 1021.61 1021.53 1021.49 1021.41 1021.41 1021.37 1021.29 1021.25 1021.25 1021.17 1021.13
1024.09 1024.13 1024.25 1024.37 1024.41 1024.49 1024.53 1024.57 1024.65 1024.69 1024.73 1024.77 1024.81 1024.81 1024.81 1024.81 1024.81 1024.81 1024.81 1024.73 1024.69 1024.69 1024.73 1024.73 1024.73 1024.69 1024.65 1024.53 1024.49 1024.41 1024.33 1024.25 1024.13 1023.97 1023.89 1023.81 1023.81 1023.77 1023.65 1023.53 1023.41 1023.21 1022.93 1022.61 1022.37 1022.13 1021.93 1021.77 1021.61 1021.49 1021.29 1021.17 1021.25 1021.45 1021.57 1021.53 1021.53 1021.49 1021.45 1021.41 1021.41 1021.33 1021.25 1021.25 1021.21 1021.13 1021.13 1021.01 1020.97
1024.17 1024.25 1024.29 1024.41 1024.45 1024.53 1024.57 1024.61 1024.69 1024.73 1024.81 1024.81 1024.81 1024.81 1024.81 1024.81 1024.81 1024.81 1024.69 1024.61 1024.61 1024.65 1024.65 1024.61 1024.61 1024.53 1024.53 1024.49 1024.45 1024.41 1024.25 1024.13 1024.01 1023.93 1023.85 1023.81 1023.81 1023.73 1023.61 1023.41 1023.29 1023.05 1022.77 1022.49 1022.29 1022.09 1021.89 1021.73 1021.57 1021.45 1021.25 1021.13 1021.25 1021.41 1021.45 1021.41 1021.41 1021.41 1021.37 1021.29 1021.25 1021.21 1021.17 1021.13 1021.09 1021.01 1020.97 1020.89 1020.85
1024.17 1024.25 1024.37 1024.41 1024.49 1024.53 1024.61 1024.69 1024.73 1024.77 1024.81 1024.81 1024.81 1024.81 1024.81 1024.81 1024.77 1024.69 1024.61 1024.49 1024.53 1024.53 1024.61 1024.57 1024.53 1024.53 1024.49 1024.45 1024.41 1024.37 1024.25 1024.09 1023.97 1023.89 1023.81 1023.77 1023.73 1023.65 1023.53 1023.33 1023.17 1022.97 1022.69 1022.41 1022.25 1022.05 1021.89 1021.73 1021.57 1021.41 1021.25 1021.13 1021.21 1021.29 1021.33 1021.29 1021.25 1021.25 1021.25 1021.25 1021.21 1021.13 1021.05 1020.97 1020.97 1020.89 1020.81 1020.77 1020.69
1024.17 1024.25 1024.37 1024.45 1024.53 1024.57 1024.65 1024.69 1024.77 1024.81 1024.81 1024.81 1024.81 1024.81 1024.77 1024.73 1024.69 1024.65 1024.53 1024.45 1024.49 1024.53 1024.57 1024.57 1024.57 1024.53 1024.49 1024.41 1024.37 1024.25 1024.09 1024.05 1023.97 1023.85 1023.73 1023.69 1023.61 1023.53 1023.45 1023.29 1023.13 1022.89 1022.65 1022.41 1022.21 1022.05 1021.89 1021.69 1021.53 1021.37 1021.21 1021.13 1021.13 1021.13 1021.17 1021.17 1021.21 1021.25 1021.25 1021.25 1021.13 1021.05 1020.97 1020.89 1020.81 1020.73 1020.69 1020.61 1020.53
1024.13 1024.17 1024.25 1024.41 1024.49 1024.57 1024.61 1024.69 1024.77 1024.81 1024.81 1024.77 1024.77 1024.73 1024.69 1024.69 1024.65 1024.57 1024.53 1024.45 1024.57 1024.65 1024.61 1024.53 1024.53 1024.49 1024.41 1024.33 1024.25 1024.09 1024.01 1023.97 1023.93 1023.85 1023.69 1023.57 1023.53 1023.49 1023.41 1023.25 1023.13 1022.89 1022.69 1022.41 1022.21 1022.01 1021.81 1021.65 1021.49 1021.29 1021.13 1021.13 1021.09 1021.09 1021.13 1021.13 1021.17 1021.21 1021.21 1021.17 1021.09 1020.97 1020.81 1020.73 1020.69 1020.57 1020.53 1020.41 1020.33
1024.09 1024.09 1024.17 1024.29 1024.41 1024.53 1024.57 1024.69 1024.73 1024.73 1024.73 1024.69 1024.69 1024.69 1024.69 1024.65 1024.61 1024.53 1024.49 1024.41 1024.49 1024.61 1024.61 1024.57 1024.49 1024.41 1024.37 1024.25 1024.17 1024.09 1023.97 1023.89 1023.81 1023.81 1023.69 1023.57 1023.49 1023.41 1023.37 1023.21 1023.05 1022.89 1022.69 1022.41 1022.17 1021.97 1021.81 1021.61 1021.41 1021.21 1021.09 1021.05 1021.01 1021.05 1021.09 1021.13 1021.13 1021.13 1021.09 1021.01 1020.89 1020.81 1020.69 1020.57 1020.53 1020.41 1020.37 1020.25 1020.09
1024.01 1024.09 1024.13 1024.21 1024.33 1024.45 1024.53 1024.61 1024.65 1024.61 1024.61 1024.61 1024.61 1024.61 1024.61 1024.57 1024.53 1024.49 1024.41 1024.33 1024.41 1024.53 1024.53 1024.53 1024.41 1024.33 1024.25 1024.17 1024.09 1024.01 1023.89 1023.81 1023.73 1023.69 1023.65 1023.53 1023.41 1023.25 1023.17 1023.13 1023.01 1022.89 1022.69 1022.41 1022.17 1021.97 1021.73 1021.53 1021.37 1021.13 1020.97 1020.93 1020.97 1020.97 1021.01 1021.01 1021.01 1020.97 1020.93 1020.81 1020.73 1020.65 1020.53 1020.41 1020.37 1020.29 1020.21 1020.09 1019.81
1023.93 1024.01 1024.09 1024.13 1024.25 1024.33 1024.41 1024.53 1024.53 1024.49 1024.49 1024.53 1024.53 1024.53 1024.53 1024.49 1024.41 1024.37 1024.33 1024.37 1024.41 1024.45 1024.45 1024.45 1024.37 1024.25 1024.17 1024.05 1024.01 1023.97 1023.89 1023.77 1023.69 1023.69 1023.57 1023.49 1023.33 1023.13 1022.97 1023.05 1023.01 1022.85 1022.69 1022.41 1022.21 1021.97 1021.69 1021.49 1021.29 1021.05 1020.89 1020.89 1020.85 1020.85 1020.85 1020.85 1020.89 1020.89 1020.81 1020.69 1020.61 1020.49 1020.37 1020.25 1020.17 1020.09 1020.05 1019.93 1019.73
1023.85 1023.97 1024.01 1024.05 1024.09 1024.21 1024.25 1024.33 1024.37 1024.37 1024.41 1024.41 1024.41 1024.41 1024.37 1024.33 1024.37 1024.37 1024.37 1024.41 1024.41 1024.41 1024.41 1024.37 1024.29 1024.25 1024.13 1024.01 1023.97 1023.97 1023.89 1023.77 1023.65 1023.57 1023.53 1023.41 1023.25 1023.13 1023.05 1023.05 1022.97 1022.81 1022.65 1022.41 1022.17 1021.93 1021.65 1021.41 1021.21 1020.97 1020.81 1020.81 1020.73 1020.73 1020.73 1020.77 1020.81 1020.81 1020.69 1020.57 1020.45 1020.33 1020.25 1020.09 1020.01 1019.93 1019.85 1019.77 1019.65
Wind_Speed
4 4 5 5 5 5 5 5 5 5 4 4 5 4 4 5 5 4 3 3 3 3 3 2 2 1 1 1 1 1 1 2 2 2 2 2 2 1 1 1 1 1 1 1 1 1 1 0 0 0 0 0 0 0 0 0 0 0 0 0 0 0 1 0 1 1 2 2 2
4 5 6 7 7 6 5 5 5 5 4 4 4 4 4 5 5 4 3 3 3 3 2 2 1 1 1 1 1 1 1 2 2 2 2 2 1 1 1 1 1 1 1 1 1 1 1 0 0 0 0 0 1 1 1 0 0 1 1 1 0 0 1 1 1 2 2 2 2
5 6 7 7 7 6 6 5 5 5 5 4 4 4 4 4 4 4 4 3 2 2 2 2 2 1 1 1 1 1 1 1 2 2 2 1 1 1 1 1 1 1 1 1 1 1 1 0 0 0 0 0 1 1 1 1 0 0 0 1 1 1 1 1 2 2 2 2 2
6 7 7 7 8 8 7 6 6 6 5 4 4 4 4 4 4 3 3 3 3 3 2 2 1 1 1 1 1 1 1 1 1 1 1 1 1 1 1 1 1 1 1 1 1 1 1 1 1 0 0 0 0 0 1 1 0 0 1 1 1 1 1 2 2 2 2 2 2
6 6 7 7 8 7 7 6 6 6 5 4 4 4 4 4 4 3 3 3 3 2 1 1 1 1 1 1 1 1 1 1 1 1 1 1 1 1 1 1 1 1 1 1 1 1 1 1 1 0 0 1 1 1 1 0 0 1 1 1 1 1 2 2 2 2 1 1 1
6 6 6 7 7 7 6 5 6 6 5 5 5 5 5 3 3 4 4 3 2 1 1 1 1 1 1 1 2 2 1 1 1 1 1 1 1 1 1 1 1 1 1 1 1 1 1 0 0 0 0 1 1 1 0 0 0 0 1 2 2 2 2 2 2 1 1 1 2
6 7 7 7 7 7 6 5 5 5 5 5 6 6 6 4 4 4 4 3 2 1 0 1 1 1 1 2 2 2 1 1 1 1 0 1 1 1 1 2 2 2 1 1 1 1 0 0 0 0 0 0 1 0 0 1 0 0 1 2 2 2 2 2 2 1 1 2 2
7 7 6 6 7 7 6 5 5 5 5 5 6 6 6 5 5 4 3 2 2 1 1 1 1 1 1 2 2 1 1 1 1 1 1 1 1 1 2 2 2 2 1 1 1 0 0 0 0 0 0 1 1 1 1 1 1 1 1 2 3 2 2 2 1 1 2 2 2
6 6 6 6 6 6 6 6 6 6 6 6 6 5 5 5 5 4 3 2 2 1 1 1 1 1 1 1 1 1 0 0 0 1 1 1 1 2 2 2 2 2 1 1 0 0 0 0 0 0 1 1 1 1 1 1 1 1 2 2 3 2 2 2 2 2 2 2 3
6 5 6 6 6 6 6 6 6 6 6 6 5 4 4 4 4 3 3 2 1 1 1 1 1 1 1 1 0 0 1 1 1 1 1 1 1 1 1 1 2 2 2 1 0 0 0 0 1 1 1 1 2 2 2 2 2 2 2 2 2 3 3 3 2 2 2 3 3
6 5 5 5 5 6 6 6 6 6 6 5 4 3 3 3 3 2 2 2 2 1 1 0 1 1 1 0 0 1 1 1 1 1 1 1 1 1 1 1 1 2 2 2 1 0 0 0 1 2 2 2 2 2 2 2 2 2 2 2 2 3 3 4 3 3 2 3 3
6 5 5 5 5 6 6 6 4 4 5 4 3 3 2 2 2 2 2 2 2 1 0 0 1 1 1 1 1 1 1 1 1 1 1 1 1 1 1 1 2 2 2 2 1 1 1 1 2 2 3 3 2 2 2 2 2 2 2 3 2 3 4 5 5 4 3 2 3
5 5 5 4 5 6 6 5 4 3 4 4 3 2 2 1 1 1 2 2 1 1 0 0 1 1 1 1 1 1 1 1 1 1 1 1 1 1 1 2 2 2 2 2 1 1 1 2 2 2 3 3 3 2 2 2 2 2 3 3 3 4 5 6 6 5 4 3 3
5 4 4 4 4 5 5 4 3 3 3 3 2 2 1 1 1 1 1 1 1 1 0 0 0 1 1 1 1 1 1 1 1 0 0 1 1 1 2 2 2 2 2 2 2 2 2 2 3 3 3 4 4 3 3 3 3 3 3 4 5 5 6 7 7 6 5 5 5
4 4 4 4 4 4 4 4 3 3 3 2 1 1 1 1 0 1 1 1 1 1 0 0 1 1 1 1 1 1 1 1 1 0 1 1 1 2 2 2 3 3 2 2 2 2 3 3 3 3 3 4 4 4 4 3 3 4 4 5 6 6 7 8 7 7 6 5 5
4 3 3 3 3 3 3 3 2 2 2 2 1 0 0 0 0 0 1 1 0 0 0 0 1 1 1 1 1 1 1 1 1 1 1 2 2 2 2 3 3 3 3 3 3 3 3 3 3 3 3 4 5 5 5 4 4 5 5 6 6 7 8 8 8 7 6 5 4
3 3 3 3 4 3 3 2 2 2 1 1 1 0 0 0 0 0 1 1 1 0 0 1 1 0 0 0 0 0 0 1 1 1 1 2 2 3 3 3 3 3 3 3 3 4 4 3 3 3 4 4 5 5 6 6 6 6 6 7 7 7 8 8 8 7 6 4 4
3 3 3 3 3 3 3 2 2 1 1 1 1 1 1 1 1 1 0 0 1 1 1 0 0 0 0 1 0 0 0 1 1 1 1 2 2 3 3 4 4 3 3 3 3 4 5 5 4 4 4 4 5 6 6 6 6 7 7 7 8 8 8 8 7 6 5 5 6
2 2 2 3 3 3 3 3 2 2 1 1 1 1 1 1 1 1 0 0 0 1 0 0 0 0 1 1 1 0 0 0 1 2 2 2 3 3 3 4 4 3 3 3 3 4 5 5 5 5 5 5 5 6 6 6 6 7 7 7 8 8 8 8 6 5 5 6 7
2 2 2 2 3 3 3 3 2 2 1 1 1 1 0 0 1 1 0 0 0 0 0 0 1 1 1 1 1 1 1 1 1 2 2 2 3 3 3 4 4 4 3 3 4 4 5 5 6 6 6 6 6 6 7 7 7 7 7 7 8 8 8 7 6 5 6 6 7
3 3 2 2 2 3 2 2 1 1 1 1 1 1 1 0 0 0 0 0 0 0 1 0 0 1 1 1 1 1 1 1 1 2 2 3 3 3 3 3 3 4 4 4 4 5 5 6 6 6 6 6 7 7 7 6 7 7 7 7 7 8 7 6 6 6 6 7 7
2 2 2 1 1 1 1 1 1 1 1 1 1 1 1 1 0 0 0 0 0 0 0 0 0 0 1 1 1 2 2 1 2 2 2 3 3 3 3 2 3 3 4 5 5 5 6 6 7 7 7 7 7 7 7 7 7 7 7 7 8 7 7 6 6 6 7 7 7
2 1 1 1 0 1 1 1 1 2 1 1 1 1 1 1 0 0 1 1 0 0 0 0 1 1 1 1 1 1 2 2 2 2 2 3 3 3 3 2 2 3 5 5 5 5 5 6 7 7 7 6 7 7 7 7 7 7 7 7 7 7 6 6 6 6 6 6 6
1 1 1 1 1 1 1 1 2 2 1 1 1 1 1 1 1 1 1 1 1 0 0 1 1 1 1 1 1 1 1 2 3 3 3 3 3 3 3 3 3 4 5 5 5 6 6 6 6 6 6 6 6 6 6 6 6 6 6 6 6 6 5 5 5 5 5 6 6
1 1 1 1 1 1 1 1 1 1 1 1 1 1 1 1 1 1 1 1 1 1 1 1 1 1 1 1 1 1 1 1 2 3 4 4 4 4 4 3 4 4 4 5 9 11 12 11 8 6 5 5 5 5 5 5 5 5 5 5 5 5 5 5 5 5 5 6 6
2 2 2 1 1 1 1 1 1 1 1 1 1 1 1 1 1 1 1 1 1 1 1 1 1 1 1 1 1 1 1 2 2 2 3 4 5 5 5 5 4 4 5 7 11 13 15 15 13 11 7 5 4 4 4 4 4 4 4 4 4 4 5 5 5 5 5 5 5
2 2 2 2 2 1 1 1 1 1 1 1 1 1 1 1 1 1 1 1 1 1 1 1 1 1 1 1 1 2 2 3 2 2 3 3 4 5 5 5 5 4 5 9 12 14 15 15 15 14 11 6 4 4 3 3 3 3 3 3 3 3 4 5 6 6 6 6 6
2 2 2 2 2 1 1 1 1 1 1 1 1 1 1 1 1 1 1 1 1 1 1 1 1 1 1 1 2 2 3 3 3 3 3 3 4 5 5 5 5 6 8 12 14 15 15 15 15 14 13 9 5 3 2 2 2 2 2 2 2 3 3 4 4 5 6 6 7
2 3 3 2 2 1 1 1 1 1 1 1 1 1 1 1 1 0 1 1 1 1 1 1 1 1 1 2 2 3 3 3 3 3 2 3 4 5 5 6 6 8 10 14 15 15 15 15 15 14 14 12 6 3 1 1 0 1 1 1 2 2 3 3 4 4 5 6 6
2 3 3 3 2 1 1 1 1 1 1 1 1 1 1 0 0 0 0 1 1 1 1 1 1 1 2 2 2 3 3 4 3 3 3 3 4 5 6 6 6 8 10 14 15 15 15 15 14 14 14 14 9 4 1 1 1 1 1 2 2 3 3 4 4 5 5 5 6
2 3 3 3 2 2 1 1 0 0 1 1 1 1 1 0 0 0 1 1 1 1 1 0 1 2 3 3 2 3 3 4 4 3 3 4 5 6 7 7 7 8 10 14 14 14 14 14 14 14 15 16 10 4 2 2 2 2 2 2 3 3 4 4 4 5 6 6 6
2 3 3 3 2 2 1 0 0 1 1 1 1 0 0 0 1 1 2 2 1 1 1 1 1 2 3 3 2 3 3 4 4 4 4 4 5 5 6 7 7 8 10 13 13 14 14 14 14 15 15 16 10 3 2 2 2 2 3 3 3 4 4 4 4 5 6 7 6
2 2 3 3 2 2 1 1 1 1 1 1 0 0 1 1 1 2 2 2 1 1 1 1 2 2 3 3 3 3 4 4 5 5 6 5 4 4 5 6 6 8 10 12 13 13 14 14 15 16 16 17 9 2 2 2 2 2 2 3 3 4 5 5 5 6 6 7 6
2 2 2 2 2 2 1 1 1 1 1 0 0 1 1 1 1 2 2 2 2 2 2 2 2 2 2 2 2 3 4 5 5 5 5 4 4 4 5 5 5 7 10 12 12 13 14 15 16 16 17 17 8 1 2 2 2 2 2 3 4 4 5 6 6 6 7 7 6
3 3 3 2 2 2 1 1 1 1 0 0 1 1 2 2 2 2 2 2 2 1 1 2 2 2 2 2 2 2 3 4 4 5 5 4 4 4 4 5 5 7 10 11 12 13 15 16 16 17 17 15 6 2 2 2 2 2 3 3 4 5 6 6 6 6 6 6 6
4 4 4 3 2 2 2 1 1 1 1 1 1 2 2 2 2 2 2 1 1 1 1 2 1 1 1 2 2 2 3 3 4 5 5 4 4 3 4 4 5 7 10 11 13 14 15 17 17 18 16 12 5 1 1 2 2 2 3 4 5 6 6 6 6 6 6 6 6
4 4 5 4 3 3 2 2 2 1 2 2 2 2 2 2 2 2 2 1 1 1 1 2 1 2 2 2 2 3 3 3 3 4 5 5 4 3 3 4 5 6 9 11 13 15 16 17 17 17 14 9 4 1 1 1 1 2 3 4 5 6 6 6 6 6 6 6 6
4 4 5 5 4 4 3 2 2 2 3 3 2 2 2 2 2 2 2 2 1 1 1 1 2 2 2 2 3 4 4 3 3 3 4 4 4 3 3 3 4 6 8 11 14 15 16 17 17 16 13 7 3 1 1 1 1 2 3 4 5 5 5 5 5 5 5 6 8
4 4 4 4 4 4 4 3 3 3 3 3 2 2 2 2 2 2 2 1 2 2 1 2 2 3 3 3 3 3 4 4 3 3 3 4 4 4 3 3 4 5 7 11 14 15 16 16 16 15 13 8 3 1 1 1 2 3 4 4 4 5 5 5 4 4 5 7 10
4 4 4 4 4 4 4 4 4 4 3 2 2 2 2 2 2 2 1 1 1 2 2 2 3 3 3 3 3 3 4 4 3 3 3 4 5 6 5 3 4 6 8 11 13 15 15 15 15 14 12 7 3 1 1 1 2 3 4 4 4 4 4 5 4 4 5 6 8
4 4 4 3 4 4 4 4 4 3 3 2 3 2 2 2 2 1 1 0 1 1 2 2 2 3 3 3 2 2 3 4 4 3 3 4 5 5 6 4 5 6 7 9 12 14 15 15 14 14 12 8 4 2 1 1 2 3 4 5 5 5 4 5 4 4 4 5 5
Wind_Direction
132 128 124 119 113 109 106 104 104 106 109 112 112 110 108 105 103 103 102 102 109 115 120 119 114 104 78 44 54 60 61 55 48 45 47 50 37 19 357 339 328 326 325 317 312 305 299 297 300 297 280 260 279 291 291 254 144 106 82 37 186 175 176 209 273 272 267 258 244
133 124 116 111 109 105 103 101 99 97 96 98 104 106 107 106 109 109 107 105 111 115 112 98 84 75 69 48 53 66 70 63 54 47 42 37 19 2 346 330 317 315 317 317 312 312 304 310 337 340 326 310 349 343 333 314 89 48 19 345 278 208 191 235 252 250 249 250 244
122 112 106 105 106 106 105 105 101 97 94 91 94 97 101 104 108 109 109 107 100 92 89 84 75 75 76 70 44 52 65 71 60 51 40 21 2 346 336 322 313 309 304 304 293 284 276 264 250 271 314 336 3 350 330 308 29 34 346 295 263 238 229 250 247 242 237 243 238
108 105 104 104 105 107 109 112 108 105 102 100 94 93 95 98 102 104 103 94 77 71 75 88 92 93 90 90 62 50 44 53 60 56 41 11 349 333 324 317 317 310 300 287 274 267 256 244 229 208 168 116 325 302 291 297 359 337 271 253 243 234 240 251 245 236 231 241 234
96 97 99 101 102 104 106 110 111 111 110 107 99 95 92 93 94 92 86 79 74 73 78 97 108 104 93 84 75 61 49 39 48 54 44 3 332 318 311 307 302 291 281 270 262 256 251 249 226 196 175 191 219 232 242 258 349 311 280 265 246 235 236 246 242 234 227 241 246
94 90 90 93 95 96 98 103 109 113 113 108 102 98 95 92 89 88 88 91 93 92 93 106 102 95 85 71 68 64 55 43 40 41 37 345 319 313 309 296 280 272 268 261 254 248 246 257 246 209 202 212 229 226 202 127 108 297 292 285 258 239 231 237 237 229 224 246 263
97 94 93 93 97 99 102 104 107 109 108 103 102 102 101 97 93 95 99 105 101 96 89 94 87 85 81 73 62 55 46 35 20 16 358 318 304 297 289 279 270 265 262 261 257 256 253 275 36 314 297 291 271 238 163 129 149 238 278 281 265 246 228 229 229 220 218 239 257
87 89 93 97 100 103 106 108 106 103 100 98 103 106 108 106 105 106 106 98 97 102 102 86 87 87 87 84 75 65 44 24 354 330 307 293 288 280 274 272 272 268 261 261 271 297 314 339 83 273 278 282 270 240 186 155 171 216 252 268 268 259 239 229 225 218 219 229 248
82 83 86 89 94 97 101 102 102 101 100 98 102 107 112 114 116 114 110 106 117 118 103 87 87 87 85 88 90 94 89 36 289 280 274 270 275 278 279 283 295 295 292 286 301 328 343 343 282 247 239 244 249 237 207 172 190 221 244 255 268 271 265 247 230 219 216 221 242
88 86 85 86 88 92 94 92 94 97 99 100 100 103 109 114 114 114 117 124 120 102 81 90 90 87 84 90 116 174 208 213 229 240 249 253 260 270 280 293 309 313 313 311 319 344 344 314 279 262 250 230 234 232 219 190 199 227 248 253 267 281 283 275 247 227 221 228 242
92 91 92 95 95 96 94 91 90 92 96 100 100 98 99 103 105 111 113 110 95 88 86 122 114 109 110 147 205 212 217 213 216 227 238 247 253 261 270 285 298 304 304 298 287 258 228 253 263 264 259 242 229 225 220 203 205 232 253 260 267 280 286 285 273 253 236 236 247
94 93 95 99 100 98 96 95 94 94 96 101 102 100 96 98 104 107 104 88 88 95 127 173 143 147 160 205 218 219 213 209 213 221 235 254 265 273 278 286 289 289 286 279 256 226 218 230 244 259 266 259 238 224 215 208 215 243 265 272 273 278 283 285 281 274 259 247 256
97 97 97 99 99 98 96 96 97 97 98 102 103 101 98 94 99 103 100 98 108 123 160 200 176 177 187 211 214 214 211 205 208 218 242 277 288 297 297 292 286 282 276 266 238 218 216 225 231 248 262 270 259 240 222 209 222 249 269 279 283 283 281 282 282 280 277 271 269
92 96 99 100 98 97 96 97 97 98 99 101 101 97 90 80 77 93 109 122 139 151 169 204 213 209 207 207 207 205 201 198 195 208 310 315 305 301 297 290 282 276 271 262 236 220 221 233 235 241 253 268 269 260 241 221 231 245 260 271 276 278 279 280 280 281 281 280 280
86 91 95 97 96 95 96 97 99 98 98 102 99 86 72 75 68 89 113 138 156 161 160 182 234 234 226 209 201 197 190 178 152 43 349 325 309 297 290 287 281 278 273 269 251 235 231 237 239 241 249 261 267 267 260 246 246 249 255 261 266 270 274 277 278 279 279 280 285
86 87 89 92 93 93 93 97 96 96 98 106 97 84 77 111 108 124 139 160 162 165 182 205 229 239 236 220 197 184 161 125 84 28 348 321 305 295 288 285 283 280 278 280 278 268 256 245 238 238 244 255 264 268 268 264 262 261 261 262 263 266 269 272 274 277 278 281 286
85 83 84 90 95 97 100 103 99 103 109 127 139 160 174 169 158 169 168 163 167 175 205 223 229 242 253 260 197 121 83 58 37 353 313 294 287 285 284 282 280 277 275 280 287 287 284 273 254 242 241 249 258 264 268 270 270 270 269 268 267 267 268 270 272 274 277 280 278
87 84 84 94 104 112 118 124 127 137 148 163 178 187 190 162 158 166 175 162 168 181 203 239 253 297 19 10 359 22 44 21 321 288 272 266 267 270 274 277 276 274 271 274 279 284 286 283 274 263 254 254 259 262 266 269 271 271 272 272 271 270 269 269 270 270 270 267 264
101 101 104 114 125 132 139 147 155 164 172 176 175 173 166 147 138 135 136 202 196 186 174 275 343 353 5 4 339 345 344 297 279 272 266 259 260 264 270 275 278 276 273 271 274 277 279 281 279 274 270 266 267 268 269 269 270 270 270 271 271 271 270 269 268 264 258 251 253
132 138 145 149 150 154 158 165 170 172 169 155 143 135 127 116 110 121 141 200 191 147 116 82 16 356 347 344 334 320 295 252 256 266 268 265 267 269 272 277 282 282 279 275 275 276 277 279 278 276 274 273 272 273 273 272 272 271 270 270 270 269 269 268 267 263 256 250 249
162 169 171 170 165 168 171 175 165 150 132 120 119 118 110 95 101 120 155 172 116 101 99 84 34 355 339 332 327 309 291 265 250 258 265 269 271 270 270 273 281 285 285 282 279 278 278 278 277 275 273 272 270 270 270 271 271 270 269 268 269 269 270 270 266 261 257 253 252
181 180 175 163 166 169 164 147 120 110 107 105 106 106 98 89 89 108 83 74 82 89 97 124 275 286 293 292 295 292 289 284 263 255 257 264 271 271 270 268 278 286 289 287 285 283 281 280 277 273 270 267 266 264 264 264 266 267 267 268 270 271 271 269 260 255 252 252 253
179 161 124 103 101 108 109 102 94 94 94 90 90 90 86 75 53 23 21 34 48 42 275 238 249 253 252 250 261 276 290 300 292 280 270 264 273 278 279 274 280 284 286 284 282 280 278 277 274 268 263 258 256 256 255 255 257 259 262 265 268 269 267 262 254 251 251 255 256
144 123 102 81 74 76 82 90 90 90 90 90 86 82 72 60 37 26 22 26 16 343 305 281 270 262 256 250 246 254 277 300 305 304 299 291 289 289 290 289 284 281 280 279 279 279 278 276 267 260 254 248 245 245 245 246 249 251 254 259 263 266 266 263 259 258 259 261 262
123 115 102 83 78 76 78 85 94 102 106 98 78 67 62 54 36 30 23 15 356 336 317 304 291 275 265 258 248 243 248 268 289 300 304 305 304 302 300 296 290 284 282 282 288 293 297 300 297 285 268 256 249 247 247 248 251 252 254 258 264 271 276 277 275 273 270 269 269
118 113 107 90 86 83 82 90 106 111 104 83 66 62 61 51 42 35 25 11 343 324 311 308 302 292 280 279 285 277 270 260 267 278 290 298 303 305 304 299 294 290 287 288 295 301 306 309 308 305 297 287 285 283 278 271 263 260 260 262 269 275 280 283 284 284 284 282 278
117 117 112 93 90 90 90 89 90 90 87 81 78 75 66 47 41 39 26 356 323 310 305 306 300 298 295 305 304 299 292 282 274 271 275 282 292 296 297 296 294 291 290 294 300 305 309 310 309 307 306 304 310 311 308 298 288 281 275 275 280 280 281 283 288 292 295 295 289
128 123 114 101 99 95 85 70 87 94 99 101 103 94 72 54 52 44 17 330 320 319 321 315 294 295 306 310 298 292 288 287 283 279 276 277 281 283 285 287 289 290 294 300 305 309 311 310 308 308 309 313 318 325 328 319 316 311 303 290 284 280 279 281 287 290 291 290 288
131 124 120 122 123 118 98 93 113 124 129 120 99 85 75 71 65 44 359 333 336 336 328 308 306 320 325 307 293 289 288 286 282 281 284 288 287 284 282 283 284 290 298 304 308 309 310 309 308 310 314 320 326 343 17 37 359 315 292 270 260 261 266 271 274 277 277 278 281
126 126 130 135 134 134 137 151 152 139 117 90 78 77 85 84 62 32 346 324 305 287 270 267 307 312 300 287 289 291 291 287 284 285 287 290 290 289 289 289 289 294 300 306 307 308 308 308 309 313 318 320 327 340 68 126 152 191 227 241 244 250 256 263 268 270 272 274 280
125 128 132 136 139 150 165 176 129 84 73 76 86 99 106 104 157 238 237 243 251 253 253 246 298 291 284 278 281 283 286 288 291 289 286 283 286 288 290 293 293 295 299 304 305 307 308 310 313 317 320 319 329 344 113 148 169 194 216 233 245 254 259 266 269 272 275 277 281
124 127 132 139 151 162 172 141 83 76 82 93 112 135 160 194 230 233 234 231 244 260 286 312 300 294 291 290 288 285 285 289 291 289 287 283 286 289 292 294 293 294 298 303 305 308 311 314 317 319 320 320 332 353 133 165 185 204 222 239 252 260 265 269 272 274 276 278 279
124 129 135 147 158 164 158 121 94 90 94 112 145 187 210 238 252 251 244 238 233 235 248 257 269 277 282 285 288 290 290 289 288 289 291 293 293 294 294 295 292 295 299 305 309 312 315 318 320 319 319 321 330 348 151 178 196 214 231 249 258 264 265 266 269 272 275 276 276
134 137 143 154 159 159 149 125 101 93 98 129 208 221 228 241 259 260 251 233 218 217 221 230 236 244 252 258 268 279 285 289 290 293 296 299 298 297 295 294 290 297 304 310 314 317 319 320 320 319 318 321 323 310 173 193 210 230 249 261 265 267 268 267 267 269 271 273 274
153 151 154 162 162 157 147 133 114 106 122 196 240 240 236 237 243 246 242 230 214 217 234 246 241 247 254 256 254 263 276 288 292 295 296 298 298 297 295 292 290 300 308 315 319 321 321 320 319 318 317 319 317 284 196 207 226 246 258 266 271 272 272 271 271 270 269 270 270
165 161 161 164 164 162 157 148 137 143 181 224 238 244 246 244 244 242 237 225 211 246 270 274 279 282 282 278 269 268 271 280 290 295 298 299 299 297 294 292 291 302 311 318 322 322 322 321 319 317 316 317 313 280 216 213 232 252 264 270 272 272 272 272 271 271 270 270 268
173 165 161 161 165 168 168 158 158 178 208 225 231 235 241 247 254 251 239 192 176 249 273 280 282 280 275 275 277 276 275 274 284 292 296 298 296 290 286 288 287 297 307 316 321 323 322 321 319 317 316 314 309 282 222 210 240 262 270 271 271 271 271 271 270 270 270 269 272
177 169 162 160 166 169 171 167 178 198 214 224 226 227 231 240 256 255 238 186 183 212 251 268 269 264 263 265 275 279 280 276 278 284 289 294 289 282 277 281 283 291 302 314 321 324 324 322 320 318 317 313 309 279 204 209 253 266 269 270 272 273 273 273 271 271 270 268 280
177 170 166 162 165 169 173 179 194 205 211 215 220 224 228 236 245 246 233 188 180 195 220 248 258 262 267 273 280 287 289 287 280 276 278 284 286 289 290 282 284 290 302 314 322 325 324 322 320 319 318 317 312 266 193 220 253 265 270 272 278 281 282 280 277 274 271 268 284
173 171 169 167 167 169 175 189 202 206 205 201 208 215 221 227 237 241 235 181 180 192 211 235 256 268 278 287 288 291 294 297 288 280 277 283 293 306 315 308 293 293 301 312 320 323 324 323 322 321 320 319 313 282 228 230 255 271 279 283 287 290 292 288 282 277 272 269 281
168 171 175 178 172 173 179 193 204 206 201 195 204 209 214 220 234 245 251 200 203 209 219 240 263 277 287 295 292 291 294 299 296 292 289 296 302 313 319 310 297 294 297 305 315 320 324 324 324 323 321 319 313 308 302 263 277 287 291 293 294 294 294 292 288 282 275 272 275